Back to catalog

COSMOS 985 DEB

AlivePO
NORAD 23836·DEBRIS·🇷🇺 Russia

Launched Jan 17, 1978 from Plesetsk Cosmodrome

Loading…

Next Passes (next 24 hours)

TLE

FreshSource: Space-Track

Epoch: Sep 14, 2026, 09:18 UTC

1 23836U 78007D   26257.38780813  .00000934  00000-0  56998-3 0  9990
2 23836  82.9300  46.8668 0038456  24.6169   4.1620 14.04701084653756

Track COSMOS 985 DEB in real time with AllMySat

Download on the App Store